Artesia, NM

9:04 PM MDT on May 25, 2017 (GMT -0600)
Artesia Municipal

Weather History for KATS - July, 2013

Change the Weather History Date:

Saturday, July 6, 2013

  Actual Average Record
Temperature  
Mean Temperature 82 °F -  
Max Temperature 96 °F 93 °F 104 °F (2016)
Min Temperature 69 °F 63 °F 54 °F (1987)
Cooling Degree Days 18    
Growing Degree Days 32 (Base 50)    
Moisture  
Dew Point 52 °F    
Average Humidity 35    
Maximum Humidity 56    
Minimum Humidity 20    
Precipitation  
Precipitation 0.00 in - - ()
Sea Level Pressure  
Sea Level Pressure 29.91 in    
Wind  
Wind Speed 13 mph (SE)    
Max Wind Speed 24 mph    
Max Gust Speed 32 mph    
Visibility 10 miles    
Events      
Averages and records for this station are not official NWS values.
T = Trace of Precipitation, MM = Missing Value Source: NWS Daily Summary

Daily Weather History Graph

Daily Weather History Graph

Search for Another Location

Airport or City:

Trip Planner

Search our weather history database for the weather conditions in past years. The results will help you decide how hot, cold, wet, or windy it might be!

Date:

Astronomy

Jul. 06, 2013 Rise Set
Actual Time 5:55 AM MDT 8:09 PM MDT
Civil Twilight 5:27 AM MDT 8:37 PM MDT
Nautical Twilight 4:52 AM MDT 9:12 PM MDT
Astronomical Twilight 4:15 AM MDT 9:50 PM MDT
Moon 4:40 AM MDT (7/6) 6:55 PM MDT (7/6)
Length of Visible Light 15h 10m
Length of Day
14h 13m
Waning Crescent, 2% of the Moon is Illuminated
Jul 6
Waning Crescent
Jul 8
New
Jul 15
First Quarter
Jul 22
Full
Jul 29
Last Quarter

Hourly Weather History & Observations

Time (MDT) Temp. Heat Index Dew Point Humidity Pressure Visibility Wind Dir Wind Speed Gust Speed Precip Events Conditions
12:15 AM 80.6 °F 80.3 °F 53.6 °F 39% 29.94 in 10.0 mi SSE 18.4 mph 23.0 mph N/A   Clear
12:35 AM 80.6 °F 80.3 °F 53.6 °F 39% 29.94 in 10.0 mi SSE 16.1 mph 21.9 mph N/A   Partly Cloudy
12:55 AM 80.6 °F 80.3 °F 53.6 °F 39% 29.96 in 10.0 mi SSE 11.5 mph 19.6 mph N/A   Clear
1:15 AM 78.8 °F - 53.6 °F 42% 29.96 in 10.0 mi SE 9.2 mph - N/A   Clear
1:35 AM 78.8 °F - 53.6 °F 42% 29.95 in 10.0 mi SE 9.2 mph - N/A   Clear
1:55 AM 77.0 °F - 53.6 °F 44% 29.95 in 10.0 mi SSE 15.0 mph - N/A   Clear
2:15 AM 77.0 °F - 51.8 °F 41% 29.94 in 10.0 mi SSE 16.1 mph - N/A   Clear
2:35 AM 77.0 °F - 51.8 °F 41% 29.93 in 10.0 mi SSE 15.0 mph - N/A   Clear
2:55 AM 75.2 °F - 50.0 °F 41% 29.93 in 10.0 mi SSE 18.4 mph - N/A   Clear
3:15 AM 75.2 °F - 50.0 °F 41% 29.93 in 10.0 mi SSE 16.1 mph 21.9 mph N/A   Clear
3:35 AM 75.2 °F - 50.0 °F 41% 29.92 in 10.0 mi SE 16.1 mph - N/A   Clear
3:55 AM 75.2 °F - 50.0 °F 41% 29.93 in 10.0 mi SSE 12.7 mph - N/A   Clear
4:15 AM 73.4 °F - 50.0 °F 44% 29.92 in 10.0 mi SSE 16.1 mph 23.0 mph N/A   Clear
4:35 AM 73.4 °F - 50.0 °F 44% 29.92 in 10.0 mi SSE 12.7 mph - N/A   Clear
4:55 AM 73.4 °F - 50.0 °F 44% 29.93 in 10.0 mi SSE 9.2 mph - N/A   Clear
5:15 AM 71.6 °F - 51.8 °F 50% 29.93 in 10.0 mi SE 9.2 mph - N/A   Clear
5:35 AM 71.6 °F - 51.8 °F 50% 29.95 in 10.0 mi SE 4.6 mph - N/A   Clear
5:55 AM 71.6 °F - 53.6 °F 53% 29.94 in 10.0 mi SE 8.1 mph - N/A   Clear
6:15 AM 69.8 °F - 53.6 °F 56% 29.94 in 10.0 mi SSE 8.1 mph - N/A   Clear
6:35 AM 69.8 °F - 53.6 °F 56% 29.95 in 10.0 mi SE 5.8 mph - N/A   Clear
6:55 AM 69.8 °F - 53.6 °F 56% 29.96 in 10.0 mi South 3.5 mph - N/A   Clear
7:15 AM 71.6 °F - 53.6 °F 53% 29.96 in 10.0 mi South 5.8 mph - N/A   Clear
7:35 AM 73.4 °F - 53.6 °F 50% 29.97 in 10.0 mi SSE 6.9 mph - N/A   Clear
7:55 AM 73.4 °F - 51.8 °F 47% 29.96 in 10.0 mi SSE 15.0 mph - N/A   Clear
8:15 AM 75.2 °F - 51.8 °F 44% 29.97 in 10.0 mi SSE 13.8 mph - N/A   Clear
8:35 AM 77.0 °F - 51.8 °F 41% 29.97 in 10.0 mi SSE 16.1 mph - N/A   Clear
8:55 AM 77.0 °F - 51.8 °F 41% 29.96 in 10.0 mi SSE 15.0 mph - N/A   Clear
9:15 AM 78.8 °F - 51.8 °F 39% 29.96 in 10.0 mi SSE 12.7 mph - N/A   Clear
9:35 AM 78.8 °F - 51.8 °F 39% 29.96 in 10.0 mi SE 11.5 mph - N/A   Clear
9:55 AM 80.6 °F - 51.8 °F 37% 29.96 in 10.0 mi SE 11.5 mph - N/A   Clear
10:15 AM 80.6 °F 80.3 °F 53.6 °F 39% 29.95 in 10.0 mi South 9.2 mph - N/A   Clear
10:35 AM 82.4 °F 81.4 °F 53.6 °F 37% 29.95 in 10.0 mi SE 10.4 mph - N/A   Clear
10:55 AM 82.4 °F 81.4 °F 53.6 °F 37% 29.95 in 10.0 mi SSE 10.4 mph 16.1 mph N/A   Clear
11:15 AM 84.2 °F 82.8 °F 53.6 °F 35% 29.94 in 10.0 mi SSE 8.1 mph - N/A   Clear
11:35 AM 84.2 °F 82.8 °F 53.6 °F 35% 29.94 in 10.0 mi SE 9.2 mph 17.3 mph N/A   Clear
11:55 AM 86.0 °F 84.2 °F 53.6 °F 33% 29.93 in 10.0 mi SE 11.5 mph 16.1 mph N/A   Clear
12:15 PM 86.0 °F 84.2 °F 53.6 °F 33% 29.93 in 10.0 mi South 8.1 mph - N/A   Clear
12:35 PM 89.6 °F 87.3 °F 53.6 °F 29% 29.92 in 10.0 mi SSE 9.2 mph - N/A   Clear
12:55 PM 89.6 °F 87.3 °F 53.6 °F 29% 29.91 in 10.0 mi ESE 11.5 mph 16.1 mph N/A   Clear
1:15 PM 91.4 °F 89.1 °F 53.6 °F 28% 29.90 in 10.0 mi ESE 11.5 mph - N/A   Clear
1:35 PM 91.4 °F 89.1 °F 53.6 °F 28% 29.89 in 10.0 mi ESE 12.7 mph 17.3 mph N/A   Clear
1:55 PM 93.2 °F - 51.8 °F 24% 29.89 in 10.0 mi ESE 13.8 mph 17.3 mph N/A   Clear
2:15 PM 93.2 °F 90.8 °F 53.6 °F 26% 29.88 in 10.0 mi SE 13.8 mph - N/A   Clear
2:35 PM 93.2 °F - 51.8 °F 24% 29.88 in 10.0 mi SSE 11.5 mph 18.4 mph N/A   Clear
2:55 PM 95.0 °F 92.7 °F 53.6 °F 25% 29.87 in 10.0 mi SE 12.7 mph 18.4 mph N/A   Clear
3:15 PM 95.0 °F 92.7 °F 53.6 °F 25% 29.87 in 10.0 mi SE 15.0 mph 19.6 mph N/A   Clear
3:35 PM 95.0 °F 92.7 °F 53.6 °F 25% 29.86 in 10.0 mi SE 11.5 mph 17.3 mph N/A   Clear
3:55 PM 95.0 °F 92.7 °F 53.6 °F 25% 29.85 in 10.0 mi ESE 12.7 mph 17.3 mph N/A   Clear
4:15 PM 96.8 °F - 51.8 °F 22% 29.84 in 10.0 mi SE 11.5 mph 25.3 mph N/A   Clear
4:35 PM 96.8 °F - 50.0 °F 20% 29.84 in 10.0 mi South 10.4 mph 19.6 mph N/A   Clear
4:55 PM 96.8 °F - 50.0 °F 20% 29.83 in 10.0 mi SE 10.4 mph 17.3 mph N/A   Clear
5:15 PM 95.0 °F - 50.0 °F 22% 29.83 in 10.0 mi ESE 15.0 mph 18.4 mph N/A   Clear
5:35 PM 95.0 °F - 50.0 °F 22% 29.83 in 10.0 mi SE 16.1 mph - N/A   Clear
5:55 PM 95.0 °F - 50.0 °F 22% 29.83 in 10.0 mi SSE 15.0 mph 18.4 mph N/A   Clear
6:15 PM 95.0 °F - 50.0 °F 22% 29.83 in 10.0 mi SSE 12.7 mph 17.3 mph N/A   Clear
6:35 PM 95.0 °F - 50.0 °F 22% 29.83 in 10.0 mi SSE 12.7 mph - N/A   Clear
6:55 PM 93.2 °F - 50.0 °F 23% 29.84 in 10.0 mi SSE 11.5 mph - N/A   Clear
7:15 PM 93.2 °F - 50.0 °F 23% 29.84 in 10.0 mi SE 12.7 mph - N/A   Clear
7:35 PM 91.4 °F - 50.0 °F 24% 29.85 in 10.0 mi SSE 13.8 mph - N/A   Clear
7:55 PM 91.4 °F - 50.0 °F 24% 29.85 in 10.0 mi SE 12.7 mph - N/A   Clear
8:15 PM 89.6 °F - 51.8 °F 27% 29.85 in 10.0 mi SE 15.0 mph - N/A   Clear
8:35 PM 87.8 °F - 51.8 °F 29% 29.86 in 10.0 mi SE 18.4 mph 23.0 mph N/A   Clear
8:55 PM 87.8 °F - 50.0 °F 27% 29.87 in 10.0 mi SE 20.7 mph 25.3 mph N/A   Clear
9:15 PM 86.0 °F - 50.0 °F 29% 29.89 in 10.0 mi SE 18.4 mph 24.2 mph N/A   Clear
9:35 PM 86.0 °F - 51.8 °F 31% 29.90 in 10.0 mi SSE 20.7 mph - N/A   Clear
9:55 PM 86.0 °F - 51.8 °F 31% 29.91 in 10.0 mi SSE 19.6 mph 26.5 mph N/A   Clear
10:15 PM 84.2 °F - 50.0 °F 30% 29.92 in 10.0 mi SSE 23.0 mph 28.8 mph N/A   Clear
10:35 PM 84.2 °F - 50.0 °F 30% 29.93 in 10.0 mi SSE 24.2 mph 31.1 mph N/A   Clear
10:55 PM 84.2 °F - 50.0 °F 30% 29.94 in 10.0 mi SSE 21.9 mph 29.9 mph N/A   Clear
11:15 PM 82.4 °F - 50.0 °F 32% 29.95 in 10.0 mi SSE 21.9 mph 29.9 mph N/A   Clear
11:35 PM 82.4 °F - 50.0 °F 32% 29.95 in 10.0 mi SSE 23.0 mph 29.9 mph N/A   Clear
11:55 PM 82.4 °F - 48.2 °F 30% 29.94 in 10.0 mi SSE 20.7 mph 32.2 mph N/A   Clear